Weather History for Mombasa, Kenya

Change the Weather History Date:

Tuesday, November 22, 2011

  Actual Average Record
Temperature  
Mean Temperature 82 °F -  
Max Temperature 89 °F 90 °F 90 °F (2013)
Min Temperature 76 °F 72 °F 73 °F (1996)
Cooling Degree Days 18    
Growing Degree Days 32 (Base 50)    
Moisture  
Dew Point 75 °F    
Average Humidity 78    
Maximum Humidity 94    
Minimum Humidity 54    
Precipitation  
Precipitation 0.00 in 0.11 in - ()
Sea Level Pressure  
Sea Level Pressure 29.83 in    
Wind  
Wind Speed 4 mph ()    
Max Wind Speed 14 mph    
Max Gust Speed -    
Visibility 7.7 miles    
Events      
Averages and records for this station are not official NWS values.
T = Trace of Precipitation, MM = Missing Value Source: Averaged Metar Reports

Daily Weather History Graph

Daily Weather History Graph

Search for Another Location

Airport:

Trip Planner

Search our weather history database for the weather conditions in past years. The results will help you decide how hot, cold, wet, or windy it might be!

Date:

Astronomy

Nov. 22, 2011 Rise Set
Actual Time 5:58 AM EAT 6:17 PM EAT
Civil Twilight 5:35 AM EAT 6:39 PM EAT
Nautical Twilight 5:10 AM EAT 7:05 PM EAT
Astronomical Twilight 4:44 AM EAT 7:31 PM EAT
Moon 3:00 AM EAT (11/22) 3:33 PM EAT (11/22)
Length of Visible Light 13h 03m
Length of Day
12h 19m
Waning Crescent, 12% of the Moon is Illuminated
Nov 22
Waning Crescent
Nov 25
New
Dec 2
First Quarter
Dec 10
Full
Dec 18
Last Quarter

Hourly Weather History & Observations

Time (EAT) Temp. Heat Index Dew Point Humidity Pressure Visibility Wind Dir Wind Speed Gust Speed Precip Events Conditions
12:00 AM 78.8 °F - 77.0 °F 94% 29.89 in 6.2 mi Calm Calm - N/A   Scattered Clouds
1:00 AM 78.8 °F - 77.0 °F 94% 29.86 in 6.2 mi NE 3.5 mph - N/A   Partly Cloudy
2:00 AM 78.8 °F - 77.0 °F 94% 29.83 in 6.2 mi Calm Calm - N/A   Partly Cloudy
3:00 AM 78 °F - 76 °F 90% 29.84 in 19 mi Calm Calm - -   Mostly Cloudy
3:00 AM 78.8 °F - 75.2 °F 89% 29.83 in 6.2 mi Calm Calm - N/A   Mostly Cloudy
4:00 AM 78.8 °F - 77.0 °F 94% 29.83 in 6.2 mi Calm Calm - N/A   Mostly Cloudy
5:00 AM 77.0 °F - 75.2 °F 94% 29.86 in - North - - N/A   Partly Cloudy
6:00 AM 77.0 °F - 75.2 °F 94% 29.86 in 6.2 mi NW 3.5 mph - N/A   Partly Cloudy
7:00 AM 78.8 °F - 77.0 °F 94% 29.89 in 6.2 mi NW 6.9 mph - N/A   Scattered Clouds
8:00 AM 80.6 °F 87.1 °F 77.0 °F 89% 29.89 in 6.2 mi NW 4.6 mph - N/A   Mostly Cloudy
9:00 AM 84 °F - 72 °F 60% 29.90 in 19 mi NNW 4.6 mph - -   Partly Cloudy
9:00 AM 84.2 °F 89.6 °F 71.6 °F 66% 29.89 in 6.2 mi NNW 4.6 mph - N/A   Scattered Clouds
10:00 AM 86.0 °F 93.4 °F 73.4 °F 66% 29.89 in 6.2 mi North 5.8 mph - N/A   Scattered Clouds
11:00 AM 89.6 °F 98.2 °F 73.4 °F 59% 29.86 in 6.2 mi North 6.9 mph - N/A   Scattered Clouds
12:00 PM 89.6 °F 96.2 °F 71.6 °F 55% 29.83 in 6.2 mi NNE 6.9 mph - N/A   Scattered Clouds
1:00 PM 87.8 °F 97.6 °F 75.2 °F 66% 29.80 in 6.2 mi ENE 5.8 mph - N/A   Scattered Clouds
2:00 PM 89.6 °F 99.8 °F 75.2 °F 62% 29.77 in 6.2 mi ENE 12.7 mph - N/A   Partly Cloudy
3:00 PM 88 °F - 74 °F 54% 29.74 in 19 mi ENE 12.7 mph - -   Scattered Clouds
3:00 PM 87.8 °F 95.6 °F 73.4 °F 62% 29.74 in 6.2 mi ENE 12.7 mph - N/A   Partly Cloudy
4:00 PM 87.8 °F 97.6 °F 75.2 °F 66% 29.74 in 6.2 mi East 13.8 mph - N/A   Partly Cloudy
5:00 PM 84.2 °F 94.1 °F 77.0 °F 79% 29.74 in 6.2 mi ENE 12.7 mph - N/A   Partly Cloudy
6:00 PM 82.4 °F 89.5 °F 75.2 °F 79% 29.74 in 6.2 mi ENE 9.2 mph - N/A   Partly Cloudy
7:00 PM 82.4 °F 89.5 °F 75.2 °F 79% 29.77 in 6.2 mi East 9.2 mph - N/A   Partly Cloudy
8:00 PM 82.4 °F 90.9 °F 77.0 °F 84% 29.80 in 6.2 mi East 5.8 mph - N/A   Partly Cloudy
9:00 PM 82.4 °F 90.9 °F 77.0 °F 84% 29.83 in 6.2 mi ESE 4.6 mph - N/A   Partly Cloudy
10:00 PM 82.4 °F 90.9 °F 77.0 °F 84% 29.86 in 6.2 mi East 5.8 mph - N/A   Partly Cloudy
11:00 PM 80.6 °F 86.2 °F 75.2 °F 84% 29.86 in 6.2 mi Calm Calm - N/A   Scattered Clouds